Home   Weather   Prospect   Past weeks
Flag for USA

Past Weather in Prospect, Kentucky, USA — Yesterday and Last 2 Weeks

Now
63 °F

Passing clouds.


Feels Like: 63 °F
Forecast: 65 / 50 °F
Wind: 12 mph from Southwest

Location: Bowman Field

Current Time: Oct 22, 2019 at 3:42:34 pm

Latest Report: Oct 22, 2019 at 2:53 pm


Visibility: 10 mi

Pressure: 29.84 "Hg

Humidity: 41%

Dew Point: 39 °F

Location of ProspectLocation

Past Weather in Prospect — Graph

°F

Prospect Temperature Yesterday

Maximum temperature yesterday: 74 °F (at 1:53 pm)
Minimum temperature yesterday: 58 °F (at 3:53 am)
Average temperature yesterday: 65 °F

High & Low Weather Summary for the Past Weeks

 TemperatureHumidityPressure
High83 °F (Oct 10, 3:53 pm)93% (Oct 8, 1:53 am)30.23 "Hg (Oct 8, 1:53 am)
Low37 °F (Oct 13, 7:53 am)23% (Oct 14, 3:53 pm)29.71 "Hg (Oct 21, 1:53 pm)
Average58 °F69%30.01 "Hg
* Reported Oct 7 2:03 pm — Oct 22 1:53 pm, Prospect. Weather by CustomWeather, © 2019

Note: Actual official high and low records may vary slightly from our data, if they occured in-between our weather recording intervals... More about our weather records

Advertising

Prospect Weather History for the Previous 24 Hours

Scroll right to see more
 ConditionsComfort  
Time TempWeatherWind HumidityBarometerVisibility
1:53 pm
Tue, Oct 22
62 °FPassing clouds.20 mph44%29.86 "Hg10 mi
12:53 pm62 °FSunny.21 mph44%29.86 "Hg10 mi
11:53 am60 °FSunny.13 mph49%29.86 "Hg10 mi
10:53 am58 °FSunny.16 mph51%29.85 "Hg10 mi
9:53 am56 °FSunny.15 mph62%29.86 "Hg10 mi
8:53 am56 °FSunny.9 mph72%29.83 "Hg10 mi
7:53 am55 °FClear.8 mph80%29.81 "Hg10 mi
6:53 am55 °FClear.8 mph83%29.81 "Hg10 mi
5:53 am56 °FClear.8 mph87%29.80 "Hg10 mi
4:53 am57 °FClear.7 mph83%29.78 "Hg10 mi
3:53 am58 °FClear.7 mph84%29.78 "Hg10 mi
2:53 am60 °FPassing clouds.7 mph83%29.79 "Hg10 mi
1:53 am61 °FPassing clouds.7 mph81%29.79 "Hg10 mi
1:12 am62 °FPartly cloudy.8 mph80%29.81 "Hg10 mi
12:53 am63 °FPassing clouds.8 mph78%29.80 "Hg10 mi
12:14 am63 °FPassing clouds.9 mph78%29.81 "Hg10 mi
11:53 pm
Mon, Oct 21
63 °FPassing clouds.9 mph81%29.80 "Hg10 mi
11:27 pm63 °FPartly cloudy.9 mph81%29.81 "Hg10 mi
10:53 pm63 °FPassing clouds.10 mph81%29.78 "Hg10 mi
9:53 pm63 °FClear.15 mph81%29.76 "Hg10 mi
8:53 pm64 °FPartly cloudy.13 mph78%29.76 "Hg10 mi
7:53 pm66 °FMostly cloudy.16 mph75%29.75 "Hg10 mi
6:53 pm66 °FLight rain. Partly sunny.9 mph81%29.72 "Hg10 mi
5:53 pm68 °FLight rain. Overcast.12 mph73%29.72 "Hg10 mi
4:53 pm70 °FOvercast.15 mph68%29.73 "Hg10 mi
3:53 pm72 °FOvercast.18 mph64%29.72 "Hg10 mi
Weather by CustomWeather, © 2019

See weather overview